Weather Roundup
Issued by NWS

Home | Current Version | Previous Version | Graphics & Text | Print | Product List | Glossary Off
Versions: 1 2 3 4 5 6 7 8 9 10 11 12 13 14 15 16 17 18 19 20 21 22 23 24 25 26 27 28 29 30 31 32 33 34 35 36 37 38 39 40 41 42 43 44 45 46 47 48 49 50

000
NZUS93 KARX 220159
HRRWXR

CURRENT HOURLY OBSERVATIONS ACROSS
MUCH OF THE UPPER MISSISSIPPI VALLEY
NATIONAL WEATHER SERVICE LA CROSSE WI
800 PM CST TUE FEB 21 2017


...SOUTHEAST MINNESOTA...


CITY           SKY/WX    TMP DP  RH WIND       PRES   REMARKS
ROCHESTER      CLEAR     47  42  83 S14       29.76F
ROCHESTER/MAYO FAIR      51  43  75 S8        29.76F
WINONA         CLOUDY    54  41  62 CALM      29.78F
AUSTIN         CLEAR     46  43  87 S9        29.75F
ALBERT LEA     CLEAR     54  45  71 S13       29.73F
DODGE CENTER   NOT AVBL
PRESTON        CLEAR     48  40  75 S13       29.78S
OWATONNA       CLEAR     50  45  81 S12       29.73F
FARIBAULT      PTCLDY    48  45  87 S7        29.73F
$$

...ELSEWHERE IN MINNESOTA...


CITY           SKY/WX    TMP DP  RH WIND       PRES   REMARKS
MINNEAPOLIS    PTCLDY    52  44  74 SE5       29.70F
INTNL FALLS    CLOUDY    33  31  92 CALM      29.65F
DULUTH         PTCLDY    41  34  76 CALM      29.66F
RED WING       PTCLDY    54  41  62 S3        29.73F
REDWOOD FALLS  CLEAR     48  41  76 SW3       29.69S
MANKATO          N/A     51  45  79 S7        29.72S
WORTHINGTON    CLEAR     51  43  74 SW8       29.71F
FAIRMONT       CLEAR     50  44  80 S7        29.73S
$$

...SOUTHWEST WISCONSIN...


CITY           SKY/WX    TMP DP  RH WIND       PRES   REMARKS
LA CROSSE      MOCLDY    54  39  57 S13       29.78S
PRAIRIE DU CHI CLEAR     50  38  63 CALM      29.82F
BOSCOBEL       CLOUDY    51  39  63 CALM      29.83F
LONE ROCK      NOT AVBL
PLATTEVILLE    MOCLDY    51  39  63 S7        29.85F
FORT MC COY    PTCLDY    51  35  54 S5        29.79F
MAUSTON-NEW LI MOCLDY    54  35  48 S8        29.79F
VIROQUA        FAIR      50  39  64 S13G18    29.79F
WIS DELLS      CLOUDY    51  34  51 S7        29.82F
$$

...ELSEWHERE IN WISCONSIN...


CITY           SKY/WX    TMP DP  RH WIND       PRES   REMARKS
MILWAUKEE      CLOUDY    47  44  90 SE5       29.87F FOG
MADISON        MOCLDY    48  35  60 S5        29.84F
GREEN BAY      CLOUDY    50  42  74 S9        29.80F
EAU CLAIRE     NOT AVBL
BLACK RVR FLS  FAIR      46  32  59 CALM      29.78R
MEDFORD        MOCLDY    44  35  72 S5        29.76S
WAUSAU         PTCLDY    50  34  54 S8        29.76F
WIS RAPIDS     PTCLDY    53  32  44 S6        29.79F
MARSHFIELD     PTCLDY    49  32  52 SW6       29.77S
RICE LAKE      CLOUDY    49  38  66 S7        29.74S
$$

...NORTHEAST IOWA...


CITY           SKY/WX    TMP DP  RH WIND       PRES   REMARKS
WATERLOO       CLEAR     51  39  63 S12       29.80F
DUBUQUE        PTCLDY    45  39  79 S5        29.85F
DECORAH        CLEAR     50  43  76 SW6       29.80R
MASON CITY     CLEAR     44  40  85 S8        29.78F
CHARLES CITY   CLEAR     48  43  81 S10       29.79F
OELWEIN        CLEAR     45  41  87 SE10      29.82F
$$

...ELSEWHERE IN IOWA...


CITY           SKY/WX    TMP DP  RH WIND       PRES   REMARKS
DES MOINES     CLEAR     55  33  43 S7        29.83S
IOWA CITY      CLEAR     48  40  73 SE6       29.87F
FORT DODGE     CLEAR     52  39  62 S15       29.78S
MARSHALLTOWN   CLEAR     51  39  63 SE7       29.80F
CEDAR RAPIDS   CLEAR     49  38  65 S6        29.83F
$$

...NORTHERN ILLINOIS...


CITY           SKY/WX    TMP DP  RH WIND       PRES   REMARKS
CHICAGO-OHARE  CLOUDY    56  50  80 S8        29.89F
CHICAGO-MIDWAY MOCLDY    59  52  77 SE6       29.90S
MOLINE         CLEAR     50  43  77 CALM      29.87S
ROCKFORD       CLOUDY    55  44  66 S3        29.89F
PEORIA         PTCLDY    59  55  87 S9        29.91F
$$

NOTE: "FAIR" INDICATES FEW OR NO CLOUDS BELOW 12,000 FEET WITH NO
SIGNIFICANT WEATHER AND/OR OBSTRUCTIONS TO VISIBILITY. WIND
SPEEDS ARE IN MILES-PER-HOUR.




USA.gov is the U.S. government's official web portal to all federal, state and local government web resources and services.